User: anonymous   Login
Location: Glencliff
(36.1226°N, 86.7183°W)
Time: 10:48:12
(UTC+00:00)
Language:

USA 234 - Orbit

View from above orbital plane
View from above orbital plane
View from above satellite
View from above satellite

Ground track
Ground track

The orbit data is extracted from the following two-line orbital elements,

1 38109U 12014A   19290.07311121 0.00000000  00000-0  00000-0 0    09
2 38109 122.9994 118.8962 0001708 101.8106 258.1893 13.41419935    03
Epoch (UTC): 17 October 2019 01:45:16
Eccentricity: 0.0001708
inclination: 122.9994°
perigee height: 1103 km
apogee height: 1105 km
right ascension of ascending node: 118.8962°
argument of perigee: 101.8106°
revolutions per day: 13.41419935
mean anomaly at epoch: 258.1893°
orbit number at epoch: 0

The dashed part of the orbit path shows where the satellite is in the earth's shadow,  

DLR